When you browse on this site, cookies collect data to enhance your experience and personalize the content and advertising you see.
Visit our Privacy Policy to learn more. By continuing to use the site, you agree to this use of cookies and data.
  • In Österreich
  • Länderverzeichnis
  • Für 7 Tage
  • Wassertemperatur
  • Wetterkarte
  • News
  • Widgets
  • user-avatar
    Anmelden

    Stündliche Wetter Bjala

    Heute, 20 Oktober, Sonntag

    Zeit Temperatur Niederschläge Wind Luftdruck Luftfeuchtigkeit
    00:00 +15°C° 0 mm 1 m/S 755 mmHg 93%
    01:00 +15°C° 0 mm 1 m/S 755 mmHg 93%
    02:00 +15°C° 0 mm 1 m/S 755 mmHg 93%
    03:00 +15°C° 0 mm 1 m/S 755 mmHg 93%
    04:00 +15°C° 0 mm 1 m/S 755 mmHg 93%
    05:00 +14°C° 0 mm 0 m/S 755 mmHg 93%
    06:00 +15°C° 0 mm 1 m/S 755 mmHg 91%
    07:00 +16°C° 0 mm 1 m/S 755 mmHg 89%
    08:00 +18°C° 0 mm 1 m/S 756 mmHg 86%
    09:00 +18°C° 0 mm 2 m/S 756 mmHg 79%
    10:00 +20°C° 0 mm 2 m/S 756 mmHg 71%
    11:00 +21°C° 0 mm 2 m/S 756 mmHg 64%
    12:00 +21°C° 0 mm 2 m/S 756 mmHg 63%
    13:00 +21°C° 0 mm 2 m/S 756 mmHg 62%
    14:00 +21°C° 0 mm 2 m/S 756 mmHg 62%
    15:00 +20°C° 0 mm 2 m/S 756 mmHg 67%
    16:00 +19°C° 0 mm 2 m/S 756 mmHg 73%
    17:00 +18°C° 0 mm 2 m/S 756 mmHg 79%
    18:00 +17°C° 0 mm 2 m/S 756 mmHg 83%
    19:00 +17°C° 0 mm 2 m/S 756 mmHg 87%
    20:00 +16°C° 0 mm 2 m/S 756 mmHg 91%
    21:00 +16°C° 0 mm 2 m/S 756 mmHg 91%
    22:00 +15°C° 0 mm 2 m/S 756 mmHg 92%
    23:00 +15°C° 0 mm 2 m/S 756 mmHg 92%

    Morgen, 21 Oktober, Montag

    Zeit Temperatur Niederschläge Wind Luftdruck Luftfeuchtigkeit
    00:00 +15°C° 0 mm 1 m/S 756 mmHg 92%
    01:00 +15°C° 0 mm 1 m/S 756 mmHg 93%
    02:00 +15°C° 0 mm 1 m/S 756 mmHg 93%
    03:00 +14°C° 0 mm 1 m/S 756 mmHg 93%
    04:00 +14°C° 0 mm 1 m/S 756 mmHg 93%
    05:00 +14°C° 0 mm 1 m/S 756 mmHg 93%
    06:00 +15°C° 0 mm 1 m/S 757 mmHg 92%
    07:00 +16°C° 0 mm 1 m/S 757 mmHg 90%
    08:00 +16°C° 0 mm 1 m/S 757 mmHg 88%
    09:00 +19°C° 0 mm 1 m/S 757 mmHg 80%
    10:00 +20°C° 0 mm 1 m/S 757 mmHg 72%
    11:00 +21°C° 0 mm 2 m/S 757 mmHg 63%
    12:00 +21°C° 0 mm 2 m/S 757 mmHg 62%
    13:00 +21°C° 0 mm 2 m/S 757 mmHg 60%
    14:00 +23°C° 0 mm 2 m/S 757 mmHg 59%
    15:00 +20°C° 0 mm 2 m/S 756 mmHg 66%
    16:00 +19°C° 0 mm 2 m/S 756 mmHg 73%
    17:00 +18°C° 0 mm 2 m/S 756 mmHg 80%
    18:00 +18°C° 0 mm 1 m/S 756 mmHg 83%
    19:00 +16°C° 0 mm 1 m/S 756 mmHg 87%
    20:00 +15°C° 0 mm 1 m/S 756 mmHg 90%
    21:00 +15°C° 0 mm 1 m/S 756 mmHg 91%
    22:00 +15°C° 0 mm 1 m/S 756 mmHg 91%
    23:00 +14°C° 0 mm 1 m/S 757 mmHg 91%

    übermorgen, 22 Oktober, Dienstag

    Zeit Temperatur Niederschläge Wind Luftdruck Luftfeuchtigkeit
    00:00 +14°C° 0 mm 1 m/S 757 mmHg 91%
    01:00 +14°C° 0 mm 1 m/S 757 mmHg 91%
    02:00 +14°C° 0 mm 2 m/S 757 mmHg 91%
    03:00 +14°C° 0 mm 2 m/S 757 mmHg 90%
    04:00 +13°C° 0 mm 2 m/S 756 mmHg 90%
    05:00 +13°C° 0 mm 2 m/S 756 mmHg 89%
    06:00 +14°C° 0 mm 2 m/S 757 mmHg 86%
    07:00 +13°C° 0 mm 3 m/S 757 mmHg 83%
    08:00 +14°C° 0 mm 3 m/S 757 mmHg 80%
    09:00 +17°C° 0 mm 3 m/S 757 mmHg 71%
    10:00 +19°C° 0 mm 3 m/S 757 mmHg 63%
    11:00 +21°C° 0 mm 3 m/S 757 mmHg 54%
    12:00 +21°C° 0 mm 4 m/S 757 mmHg 53%
    13:00 +22°C° 0 mm 4 m/S 757 mmHg 52%
    14:00 +23°C° 0 mm 5 m/S 757 mmHg 51%
    15:00 +21°C° 0 mm 5 m/S 757 mmHg 57%
    16:00 +20°C° 0 mm 5 m/S 756 mmHg 62%
    17:00 +19°C° 0 mm 5 m/S 756 mmHg 68%
    18:00 +17°C° 0 mm 5 m/S 756 mmHg 74%
    19:00 +17°C° 0 mm 4 m/S 757 mmHg 79%
    20:00 +14°C° 0 mm 4 m/S 757 mmHg 85%
    21:00 +14°C° 0 mm 3 m/S 757 mmHg 86%
    22:00 +14°C° 0 mm 3 m/S 757 mmHg 87%
    23:00 +13°C° 0 mm 3 m/S 757 mmHg 87%

    23 Oktober, Mittwoch

    Zeit Temperatur Niederschläge Wind Luftdruck Luftfeuchtigkeit
    00:00 +13°C° 0 mm 3 m/S 757 mmHg 86%
    01:00 +13°C° 0 mm 3 m/S 757 mmHg 85%
    02:00 +12°C° 0 mm 3 m/S 757 mmHg 84%
    03:00 +12°C° 0 mm 3 m/S 757 mmHg 82%
    04:00 +12°C° 0 mm 3 m/S 756 mmHg 79%
    05:00 +12°C° 0 mm 3 m/S 756 mmHg 77%
    06:00 +13°C° 0 mm 3 m/S 756 mmHg 73%
    07:00 +13°C° 0 mm 3 m/S 756 mmHg 69%
    08:00 +14°C° 0 mm 3 m/S 756 mmHg 66%
    09:00 +17°C° 0 mm 3 m/S 756 mmHg 60%
    10:00 +19°C° 0 mm 4 m/S 756 mmHg 55%
    11:00 +21°C° 0 mm 4 m/S 756 mmHg 50%
    12:00 +21°C° 0 mm 4 m/S 756 mmHg 49%
    13:00 +22°C° 0 mm 4 m/S 756 mmHg 48%
    14:00 +22°C° 0 mm 4 m/S 755 mmHg 47%
    15:00 +21°C° 0 mm 4 m/S 755 mmHg 54%
    16:00 +19°C° 0 mm 4 m/S 755 mmHg 61%
    17:00 +18°C° 0 mm 3 m/S 755 mmHg 67%
    18:00 +17°C° 0 mm 3 m/S 755 mmHg 73%
    19:00 +16°C° 0 mm 3 m/S 755 mmHg 78%
    20:00 +14°C° 0 mm 3 m/S 755 mmHg 83%
    21:00 +15°C° 0 mm 2 m/S 755 mmHg 84%
    22:00 +15°C° 0 mm 2 m/S 755 mmHg 85%
    23:00 +15°C° 0 mm 2 m/S 755 mmHg 86%

    24 Oktober, Donnerstag

    Zeit Temperatur Niederschläge Wind Luftdruck Luftfeuchtigkeit
    00:00 +14°C° 0 mm 2 m/S 755 mmHg 86%
    01:00 +14°C° 0 mm 2 m/S 755 mmHg 86%
    02:00 +14°C° 0 mm 2 m/S 755 mmHg 87%
    03:00 +13°C° 0 mm 2 m/S 754 mmHg 86%
    04:00 +13°C° 0 mm 2 m/S 754 mmHg 86%
    05:00 +13°C° 0 mm 2 m/S 754 mmHg 86%
    06:00 +14°C° 0 mm 2 m/S 754 mmHg 82%
    07:00 +14°C° 0 mm 2 m/S 754 mmHg 78%
    08:00 +15°C° 0 mm 2 m/S 754 mmHg 74%
    09:00 +17°C° 0 mm 2 m/S 754 mmHg 67%
    10:00 +18°C° 0 mm 2 m/S 754 mmHg 59%
    11:00 +20°C° 0 mm 2 m/S 754 mmHg 52%
    12:00 +21°C° 0 mm 2 m/S 754 mmHg 50%
    13:00 +21°C° 0 mm 2 m/S 754 mmHg 48%
    14:00 +23°C° 0 mm 2 m/S 753 mmHg 46%
    15:00 +20°C° 0 mm 2 m/S 753 mmHg 53%
    16:00 +19°C° 0 mm 2 m/S 753 mmHg 60%
    17:00 +17°C° 0 mm 2 m/S 752 mmHg 67%
    18:00 +17°C° 0 mm 2 m/S 753 mmHg 71%
    19:00 +16°C° 0 mm 2 m/S 753 mmHg 76%
    20:00 +15°C° 0 mm 2 m/S 753 mmHg 80%
    21:00 +15°C° 0 mm 1 m/S 753 mmHg 82%
    22:00 +15°C° 0 mm 1 m/S 753 mmHg 83%
    23:00 +14°C° 0 mm 1 m/S 753 mmHg 84%

    25 Oktober, Freitag

    Zeit Temperatur Niederschläge Wind Luftdruck Luftfeuchtigkeit
    00:00 +14°C° 0 mm 1 m/S 753 mmHg 85%
    01:00 +14°C° 0 mm 1 m/S 753 mmHg 85%
    02:00 +13°C° 0 mm 1 m/S 752 mmHg 85%
    03:00 +13°C° 0 mm 2 m/S 752 mmHg 85%
    04:00 +13°C° 0 mm 2 m/S 752 mmHg 85%
    05:00 +13°C° 0 mm 2 m/S 752 mmHg 84%
    06:00 +13°C° 0 mm 2 m/S 752 mmHg 81%
    07:00 +14°C° 0 mm 2 m/S 753 mmHg 78%
    08:00 +15°C° 0 mm 2 m/S 753 mmHg 75%
    09:00 +16°C° 0 mm 2 m/S 753 mmHg 66%
    10:00 +18°C° 0 mm 2 m/S 753 mmHg 58%
    11:00 +20°C° 0 mm 2 m/S 753 mmHg 49%
    12:00 +20°C° 0 mm 2 m/S 753 mmHg 47%
    13:00 +21°C° 0 mm 3 m/S 753 mmHg 44%
    14:00 +22°C° 0 mm 3 m/S 753 mmHg 42%
    15:00 +20°C° 0 mm 3 m/S 753 mmHg 49%
    16:00 +19°C° 0 mm 3 m/S 752 mmHg 57%
    17:00 +17°C° 0 mm 3 m/S 752 mmHg 64%
    18:00 +16°C° 0 mm 3 m/S 753 mmHg 69%
    19:00 +16°C° 0 mm 3 m/S 753 mmHg 74%
    20:00 +14°C° 0 mm 3 m/S 753 mmHg 79%
    21:00 +13°C° 0 mm 3 m/S 753 mmHg 80%
    22:00 +14°C° 0 mm 2 m/S 753 mmHg 81%
    23:00 +14°C° 0 mm 2 m/S 754 mmHg 83%
    Mehr zeigen